Simultaneous Nadir Overpasses (SNOs) Predictions

Prediction of SNOs near equator between AQUA and NPP Satellite Orbit:

Table of predicted SNOs near equator for the next 14.0 days since TLE Epoch: 3/20/2020
Index Date (AQUA) Time (AQUA) AQUA Lat,Lon Date (NPP) Time (NPP) NPP Lat,Lon Distance(km) Time Diff (sec)
1 03/21/2020 08:42:13 4.61, 72.73 03/21/2020 08:32:39 4.49, 72.32 48.10 574
2 03/21/2020 09:30:22 -0.15,-118.66 03/21/2020 09:22:03 0.00,-119.35 78.02 499
3 03/24/2020 00:58:18 3.12,-171.07 03/24/2020 00:49:09 2.98,-171.58 58.22 549
4 03/24/2020 01:46:26 1.40, -2.45 03/24/2020 01:38:32 1.57, -3.23 87.99 474
5 03/26/2020 16:26:08 -6.19, 136.53 03/26/2020 16:16:09 -6.14, 136.19 38.10 599
6 03/26/2020 17:14:23 1.63, -54.87 03/26/2020 17:05:39 1.48, -55.47 68.39 524
7 03/26/2020 18:02:31 2.88, 113.74 03/26/2020 17:55:02 3.08, 112.88 98.00 449
8 03/29/2020 08:42:11 -4.65,-107.26 03/29/2020 08:32:37 -4.58,-107.69 48.16 574
9 03/29/2020 09:30:25 0.03, 61.34 03/29/2020 09:22:07 -0.09, 60.65 78.49 498
10 04/01/2020 00:58:16 -3.17, 8.93 04/01/2020 00:49:07 -3.07, 8.42 58.35 549
11 04/01/2020 01:46:30 -1.44, 177.54 04/01/2020 01:38:37 -1.59, 176.75 88.58 473




NCC Satellite Simultaneous Nadir Overpasses (SNOs) Prediction Service
